AirNav   Duncan Aviation - Near you to keep you flying
 
 781 users online  

5I2 Flora Municipal Airport
Flora, Indiana, USA

GOING TO FLORA?


FAA INFORMATION EFFECTIVE 01 DECEMBER 2022

Location

FAA Identifier: 5I2
Lat/Long: 40-32-23.1300N 086-32-53.9990W
40-32.385500N 086-32.899983W
40.5397583,-86.5483331
(estimated)
Elevation: 710 ft. / 216 m (estimated)
Variation: 02W (1985)
From city: 2 miles SW of FLORA, IN
Time zone: UTC -5 (UTC -4 during Daylight Saving Time)
Zip code: 46929

Airport Operations

Airport use: Open to the public
Activation date: 02/1967
Control tower: no
ARTCC: CHICAGO CENTER
FSS: TERRE HAUTE FLIGHT SERVICE STATION
NOTAMs facility: HUF (NOTAM-D service available)
Attendance: UNATNDD
Wind indicator: lighted
Segmented circle: no
Lights: SS-SR

Airport Communications

CTAF: 122.9
WX AWOS-3P at GGP (13 nm NE): 118.5 (574-737-7310)
WX AWOS-3P at MCX (14 nm NW): 124.05 (574-583-0531)
WX AWOS-3 at FKR (16 nm S): 124.325 (765-654-0328)
WX ASOS at LAF (19 nm SW): PHONE 765-743-9687

Nearby radio navigation aids

VOR radial/distance  VOR name  Freq  Var
GUSr253/19.1GRISSOM VORTAC108.4502W
OKKr277/22.4KOKOMO VORTAC113.5005W
BVTr091/23.8BOILER VORTAC115.1001E
MZZr277/39.7MARION VOR/DME108.6003W

 
NDB name  Hdg/Dist  Freq  Var  ID
CRAWFORDSVILLE031/37.538804WCFJ -.-. ..-. .---

Airport Services

Parking: tiedowns
Airframe service: NONE
Powerplant service: NONE
Bottled oxygen: NONE
Bulk oxygen: NONE

Runway Information

Runway 9/27

Dimensions: 2143 x 93 ft. / 653 x 28 m
Surface: turf, in good condition
Runway edge lights: low intensity
RUNWAY 9  RUNWAY 27
Latitude: 40-32.418833N40-32.418833N
Longitude: 086-33.151833W086-32.681167W
Elevation: 710.0 ft.710.0 ft.
Traffic pattern: leftleft
Runway end identifier lights: nono
Obstructions: 15 ft. road, 285 ft. from runway, 20:1 slope to clear10 ft. crops, 200 ft. from runway, 20:1 slope to clear

Airport Ownership and Management from official FAA records

Ownership: Publicly-owned
Owner: TOWN OF FLORA
4 EAST MAIN ST
FLORA, IN 46929
Phone 574-967-4844
Manager: JORETTA TINSMAN
4 EAST MAIN ST
FLORA, IN 46929
Phone (574) 967-4844

Airport Operational Statistics

Aircraft based on the field: 7
Single engine airplanes: 4
Ultralights: 3
    
Aircraft operations: avg 38/week *
75% local general aviation
25% transient general aviation
* for 12-month period ending 31 December 2019

Additional Remarks

FOR CD CTC CHICAGO ARTCC AT 630-906-8921.

Instrument Procedures

There are no published instrument procedures at 5I2.

Some nearby airports with instrument procedures:

KGGP - Logansport/Cass County Airport (13 nm NE)
KMCX - White County Airport (14 nm NW)
KFKR - Frankfort Clinton County Regional Airport (16 nm S)
KGUS - Grissom Air Reserve Base (19 nm E)
KLAF - Purdue University Airport (19 nm SW)
 
Loc | Ops | Rwys | IFR | FBO | Links
Com | Nav | Svcs | Stats | Notes
Area around 5I2 (Flora Municipal Airport)
 
Road maps at: MapQuest Bing Google
 
Aerial photo
WARNING: Photo may not be current or correct
Aerial photo of 5I2 (Flora Municipal Airport)
Do you have a better or more recent aerial photo of Flora Municipal Airport that you would like to share? If so, please send us your photo.

 
Sectional chart

 
Airport distance calculator
Flying to Flora Municipal Airport? Find the distance to fly.

From to 5I2

Sunrise and sunset
Times for 08-Dec-2022
 Local
(UTC-5)
 Zulu
(UTC)
Morning civil twilight07:2712:27
Sunrise07:5812:58
Sunset17:1822:18
Evening civil twilight17:4922:49

Current date and time
Zulu (UTC)  08-Dec-2022 12:00:37
Local (UTC-5)  08-Dec-2022 07:00:37
 
METAR
KGGP 
13nm NE 
081135Z AUTO 04004KT 7SM OVC021 03/00 A3034 RMK AO2
KMCX 
14nm NW 
081135Z AUTO 06005KT 10SM OVC019 03/00 A3033 RMK AO2 T00330000
KFKR 
16nm S 
081135Z AUTO 05007KT 3SM BR FEW005 FEW018 BKN110 04/03 A3032 RMK AO2
KGUS 
19nm E 
080318Z 35003KT 4SM BR BKN020 01/01 A3033 RMK SLP281 WND DATA ESTMD $
KLAF 
20nm W 
081154Z 05005KT 6SM HZ CLR 04/01 A3037 RMK AO2 SLP289 T00390006 10044 20039 53008
KOKK 
22nm E 
081056Z AUTO 03005KT 3SM BR OVC020 03/ A3035 RMK AO2 SLP286 T0033
TAF
KGUS 
19nm E 
080031Z 0800/0903 VRB06KT 9999 SCT020 QNH3024INS TEMPO 0801/0803 OVC015 BECMG 0803/0804 VRB06KT 2400 BR BKN008 OVC012 QNH3028INS BECMG 0813/0814 VRB06KT 9999 NSW OVC012 QNH3029INS BECMG 0901/0902 07006KT 9000 BR BKN005 OVC012 QNH3029INS TX07/0820Z TN01/0813Z LAST NO AMDS AFT 0804 NEXT 0813
KLAF 
20nm W 
081124Z 0812/0912 05007KT 6SM BR SCT020 OVC100 TEMPO 0812/0816 BKN020 FM081600 07006KT P6SM BCFG VCSH OVC020 FM081800 07007KT P6SM BCFG BKN030 AMD LTD TO CLD VIS AND WIND TIL 081400
NOTAMs
Click for the latest NOTAMs
NOTAMs are issued by the DoD/FAA and will open in a separate window not controlled by AirNav.

 

 
 

Would you like to see your business listed on this page?

 If your business provides an interesting product or service to pilots, flight crews, aircraft, or users of the Flora Municipal Airport, you should consider listing it here.  To start the listing process, click on the button below
 
Add a business
 

Other Pages about Flora Municipal Airport

Update a link
 
Copyright © AirNav, LLC. All rights reserved. Privacy Policy  Contact